Regional Weather Roundup
Issued by NWS

Home | Current Version | Previous Version | Graphics & Text | Print | Product List | Glossary On
Versions: 1 2 3 4 5 6 7 8 9 10 11 12 13 14 15 16 17 18 19 20 21 22 23 24 25 26 27 28 29 30 31 32 33 34 35 36 37 38 39 40 41 42 43 44 45 46 47 48 49 50
272
ASUS43 KFSD 210510
RWRSD

WEATHER ROUNDUP FOR SOUTH DAKOTA
NATIONAL WEATHER SERVICE SIOUX FALLS SD
1200 AM CDT MON MAY 21 2018

NOTE: "FAIR" INDICATES FEW OR NO CLOUDS BELOW 12,000 FEET WITH NO
SIGNIFICANT WEATHER AND/OR OBSTRUCTIONS TO VISIBILITY.


SDZ001>005-009-010-012>017-210600-
NORTHWEST AND NORTH CENTRAL SOUTH DAKOTA

CITY           SKY/WX    TMP DP  RH WIND       PRES   REMARKS
BUFFALO          N/A     49  37  63 SE15      30.00F
FAITH            N/A     49  40  71 S9        30.09F
MOBRIDGE       CLEAR     50  41  71 SE5       30.08S
$$

SDZ012>016-024>037-041>051-057-063-072>074-210600-
SOUTHWEST AND SOUTH CENTRAL SOUTH DAKOTA

CITY           SKY/WX    TMP DP  RH WIND       PRES   REMARKS
RAPID CTY ARPT PTCLDY    42  38  85 CALM      30.09F
PIERRE         CLOUDY    54  46  74 CALM      30.08F
CUSTER         CLEAR     39  32  76 CALM      30.13F
ELLSWORTH AFB  PTCLDY    49  42  79 S5        30.08F
PHILIP         PTCLDY    49  42  77 SE7       30.09F
PINE RIDGE     PTCLDY    46  42  86 E8        30.10F
SPEARFISH      FAIR      48  37  66 CALM      30.05F
WINNER         CLOUDY    54  45  71 S6        30.10F
$$

SDZ004>011-016>023-039-040-210600-
NORTHEAST SOUTH DAKOTA

CITY           SKY/WX    TMP DP  RH WIND       PRES   REMARKS
ABERDEEN       CLOUDY    61  37  41 E6        30.09F
WATERTOWN      CLOUDY    58  47  66 CALM      30.11S
BROOKINGS      CLOUDY    56  51  84 W3        30.12S
SISSETON         N/A     50  35  56 CALM      30.11R
$$

SDZ017-020-022-023-036>040-048>070-210600-
SOUTHEAST SOUTH DAKOTA

CITY           SKY/WX    TMP DP  RH WIND       PRES   REMARKS
SIOUX FALLS    CLOUDY    56  53  90 CALM      30.10F
HURON          LGT RAIN  55  50  83 S9        30.10S
CHAMBERLAIN    CLOUDY    54  45  71 SE3       30.10S
MITCHELL       CLOUDY    57  51  80 E3        30.11S
YANKTON        LGT RAIN  53  51  93 CALM      30.11S FOG
$$

ABBREVIATIONS USED IN REMARKS
   TC - TEMPERATURE IN CELSIUS
  WCI - WIND CHILL INDEX
   HX - HEAT INDEX
  VSB - VISIBILITY





USA.gov is the U.S. government's official web portal to all federal, state and local government web resources and services.